Location: Unspecified
(43.1763°N, 79.4719°W)
Time: 04:36:57
(UTC-04:00)

Hubble Space Telescope - Visible Passes

Search period start: 21 October 2017 00:00
Search period end: 31 October 2017 00:00
Orbit: 537 x 541 km, 28.5° (Epoch: 20 October)

Date Brightness Start Highest point End Pass type
(mag) Time Alt. Az. Time Alt. Az. Time Alt. Az.
25 Oct 3.3 19:38:29 10° S 19:39:05 10° S 19:39:40 10° S visible
26 Oct 3.4 19:28:06 10° S 19:28:44 10° S 19:29:24 10° S visible
27 Oct 3.5 19:18:02 10° S 19:18:24 10° S 19:18:46 10° S visible
